This demonstration page uses our WeatherBlox Daily Observations layout. Learn more.

Left ArrowRight Arrow

Hourly Observations for November 26, 2020

Temp ( °F °C ) Dew Point ( °F °C ) Humidity (%) Winds ( mph kmh ) Pressure ( in mb ) Visibility ( mi km ) Precip ( " mm )
12:10 am 00:10 Cloudy 54 12.2 49 9.4 83 83 WSW 9 15 29.89 1012 10 16 0.00 0.00
12:53 am 00:53 Cloudy 54 12.2 50 10 87 87 SW 6 9 29.90 1013 10 16 0.00 0.00
1:11 am 01:11 Cloudy with Light Rain 53 11.7 50 10 89 89 WSW 5 7 29.91 1013 5 8 0.01 0.25
1:31 am 01:31 Cloudy with Light Rain 52 11.1 51 10.6 97 97 W 8 13 29.92 1013 3 4 0.03 0.76
1:44 am 01:44 Cloudy with Light Rain 52 11.1 51 10.6 97 97 WSW 7 11 29.93 1013 3 5 0.05 1.27
1:53 am 01:53 Cloudy with Light Rain 52 11.1 51 10.6 97 97 WSW 8 13 29.92 1013 4 6 0.05 1.27
2:41 am 02:41 Cloudy with Light Rain 52 11.1 51 10.6 97 97 VRB 5 7 29.94 1014 7 11 0.01 0.25
2:53 am 02:53 Cloudy 52 11.1 50 10 93 93 WSW 8 13 29.94 1014 10 16 0.01 0.25
3:53 am 03:53 Cloudy 52 11.1 50 10 93 93 VRB 6 9 29.95 1014 10 16 0.00 0.00
4:34 am 04:34 Cloudy 51 10.6 49 9.4 92 92 SW 7 11 29.97 1015 10 16 0.00 0.00
4:53 am 04:53 Cloudy 51 10.6 49 9.4 92 92 WSW 6 9 29.97 1015 10 16 0.00 0.00
5:29 am 05:29 Cloudy 51 10.6 48 8.9 89 89 WSW 8 13 29.99 1015 10 16 0.00 0.00
5:53 am 05:53 Cloudy with Light Rain 51 10.6 48 8.9 89 89 VRB 5 7 29.99 1016 10 16 0.00 0.00
6:49 am 06:49 Cloudy 50 10 48 9 94 94 WSW 6 9 30.02 1017 10 16 0.01 0.25
6:53 am 06:53 Cloudy 50 10 49 9.4 96 96 WSW 7 11 30.01 1016 10 16 0.01 0.25
7:04 am 07:04 Cloudy 50 10 49 9.4 96 96 WSW 5 7 30.03 1017 10 16 0.00 0.00
7:53 am 07:53 Cloudy 50 10 48 8.9 93 93 WSW 8 13 30.05 1018 7 11 0.00 0.00
8:23 am 08:23 Cloudy 50 10 48 8.9 93 93 W 6 9 30.07 1018 10 16 0.00 0.00
8:33 am 08:33 Cloudy 50 10 48 8.9 93 93 WSW 5 7 30.07 1018 10 16 0.00 0.00
8:40 am 08:40 Cloudy 50 10 48 8.9 93 93 WSW 6 9 30.07 1018 10 16 0.00 0.00
8:53 am 08:53 Cloudy 50 10 48 8.9 93 93 W 5 7 30.07 1018 10 16 0.00 0.00
9:07 am 09:07 Cloudy 50 10 48 8.9 93 93 W 5 7 30.08 1019 10 16 0.00 0.00
9:20 am 09:20 Cloudy 50 10 47 8.3 89 89 WNW 7 11 30.08 1019 10 16 0.00 0.00
9:53 am 09:53 Cloudy 50 10 47 8.3 89 89 W 3 6 30.09 1019 10 16 0.00 0.00
10:34 am 10:34 Cloudy 50 10 47 8.3 89 89 W 7 11 30.11 1020 10 16 0.00 0.00
10:53 am 10:53 Cloudy 50 10 47 8.3 89 89 W 7 11 30.10 1019 10 16 0.00 0.00
11:53 am 11:53 Cloudy 50 10 47 8.3 89 89 WSW 5 7 30.10 1019 10 16 0.00 0.00
12:00 pm 12:00 Cloudy 51 10.6 47 8.3 86 86 WSW 7 11 30.10 1019 10 16 0.00 0.00
12:20 pm 12:20 Cloudy 51 10.6 47 8.3 86 86 VRB 3 6 30.10 1019 10 16 0.00 0.00
12:53 pm 12:53 Cloudy 51 10.6 47 8.3 86 86 W 6 9 30.09 1019 10 16 0.00 0.00
1:07 pm 13:07 Cloudy 51 10.6 47 8.3 86 86 W 6 9 30.09 1019 10 16 0.00 0.00
1:26 pm 13:26 Cloudy 52 11.1 47 8.3 83 83 W 3 6 30.09 1019 10 16 0.00 0.00
1:53 pm 13:53 Cloudy 52 11.1 47 8.3 83 83 WSW 6 9 30.08 1019 10 16 0.00 0.00
2:41 pm 14:41 Cloudy 52 11.1 47 8.3 83 83 SW 6 9 30.08 1018 10 16 0.00 0.00
2:53 pm 14:53 Cloudy 52 11.1 46 7.8 80 80 WSW 5 7 30.07 1018 10 16 0.00 0.00
3:53 pm 15:53 Cloudy 52 11.1 46 7.8 80 80 WSW 5 7 30.08 1019 10 16 0.00 0.00
4:36 pm 16:36 Cloudy 51 10.6 46 7.8 83 83 SW 3 6 30.10 1019 10 16 0.00 0.00
4:53 pm 16:53 Cloudy 51 10.6 46 7.8 83 83 W 5 7 30.09 1019 10 16 0.00 0.00
5:42 pm 17:42 Cloudy 50 10 46 7.8 86 86 Calm 30.11 1020 10 16 0.00 0.00
5:53 pm 17:53 Cloudy 50 10 47 8.3 89 89 Calm 30.10 1019 10 16 0.00 0.00
6:53 pm 18:53 Cloudy 50 10 46 7.8 86 86 Calm 30.11 1020 10 16 0.00 0.00
7:53 pm 19:53 Cloudy 49 9.4 46 7.8 90 90 Calm 30.12 1020 10 16 0.00 0.00
8:53 pm 20:53 Cloudy 49 9.4 46 7.8 90 90 Calm 30.13 1020 10 16 0.00 0.00
9:05 pm 21:05 Cloudy 49 9.4 46 7.8 90 90 Calm 30.14 1021 10 16 0.00 0.00
9:53 pm 21:53 Cloudy 49 9.4 46 7.8 90 90 Calm 30.13 1020 10 16 0.00 0.00
10:53 pm 22:53 Cloudy 48 8.9 46 7.8 93 93 Calm 30.12 1020 10 16 0.00 0.00
11:53 pm 23:53 Cloudy 48 8.9 46 7.8 93 93 Calm 30.12 1020 10 16 0.00 0.00

Powered by AerisWeather